Tracking 19247 objects as of 24-Sep-2018
HD Live streaming from Space Station
objects crossing your sky now

FLOCK 2EP 20


FLOCK 2EP 20 is no longer on orbit
FLOCK 2EP 20 is classified as:


NORAD ID: 41782
Int'l Code: 1998-067KQ
Perigee: N/A
Apogee: N/A
Inclination: N/A
Period: N/A
Semi major axis: N/A
RCS: N/A
Launch date: November 20, 1998
Source: United States (US)
Launch site: TYURATAM MISSILE AND SPACE COMPLEX (TTMTR)
Decay date: 2018-09-22
aabbcc
Your satellite tracking list
Your tracking list is empty




NASA's NSSDC Master Catalog

Two Line Element Set (TLE):
1 41782U 98067KQ  18265.14821570 +.12437954 +12466-4 +39039-3 0  9997
2 41782 051.6068 177.2170 0008494 248.1587 111.8538 16.44321266115464
Source of the keplerian elements: AFSPC